AIC818 VABB-OMDB

Flight info

Callsign AIC818
Flight time 0h 35m
Altitude 34000
Route RAXET2A SAKUN V2 SUGID N571 VUSET A454 PASOV B540 MIVEK P574 IMPED
Aircraft B738/M-SDE2E3FGHIRWXY/LB1

Departure

Time 2026-04-25 21:15
Airport Chhatrapati Shivaji Maharaj International Airport (VABB)

Arrival

Time 2026-04-25 21:50
Airport Dubai International Airport (OMDB)
Time Latitude Longitude Altitude Speed Heading
2026-04-25 20:54 19.09151 72.85314 24 ft 0 kts 359°
2026-04-25 21:04 19.09150 72.85314 -4 ft 2 kts 359°
2026-04-25 21:04 19.09125 72.85315 29 ft 8 kts
2026-04-25 21:04 19.09098 72.85278 29 ft 8 kts 90°
2026-04-25 21:04 19.09098 72.85267 29 ft 0 kts 90°
2026-04-25 21:08 19.09098 72.85271 28 ft 2 kts 90°
2026-04-25 21:08 19.09095 72.85313 24 ft 10 kts 94°
2026-04-25 21:09 19.09091 72.85543 24 ft 19 kts 94°
2026-04-25 21:09 19.09043 72.85609 25 ft 11 kts 137°
2026-04-25 21:09 19.09027 72.85694 24 ft 13 kts 89°
2026-04-25 21:10 19.09029 72.85795 24 ft 15 kts 89°
2026-04-25 21:10 19.09030 72.85909 23 ft 16 kts 89°
2026-04-25 21:10 19.09032 72.86036 23 ft 18 kts 89°
2026-04-25 21:10 19.09034 72.86176 23 ft 20 kts 89°
2026-04-25 21:11 19.09036 72.86325 23 ft 21 kts 89°
2026-04-25 21:11 19.09039 72.86486 23 ft 22 kts 89°
2026-04-25 21:11 19.09041 72.86652 28 ft 22 kts 89°
2026-04-25 21:11 19.09043 72.86815 25 ft 22 kts 90°
2026-04-25 21:12 19.09044 72.86972 25 ft 21 kts 89°
2026-04-25 21:12 19.09046 72.87125 25 ft 21 kts 90°
2026-04-25 21:12 19.09048 72.87274 25 ft 20 kts 89°
2026-04-25 21:12 19.09049 72.87371 24 ft 21 kts 89°
2026-04-25 21:13 19.09051 72.87577 24 ft 21 kts 89°
2026-04-25 21:13 19.09053 72.87729 24 ft 18 kts 90°
2026-04-25 21:13 19.08983 72.87807 25 ft 17 kts 173°
2026-04-25 21:13 19.08888 72.87750 24 ft 17 kts 251°
2026-04-25 21:14 19.08885 72.87623 23 ft 17 kts 270°
2026-04-25 21:14 19.08884 72.87501 24 ft 16 kts 270°
2026-04-25 21:14 19.08884 72.87169 26 ft 85 kts 269°
2026-04-25 21:14 19.08867 72.86275 23 ft 156 kts 268°
2026-04-25 21:15 19.08865 72.84955 319 ft 194 kts 272°
2026-04-25 21:15 19.08880 72.83425 677 ft 226 kts 273°
2026-04-25 21:15 19.08851 72.81649 1003 ft 255 kts 271°
2026-04-25 21:15 19.08806 72.79747 1395 ft 253 kts 271°
2026-04-25 21:16 19.08762 72.77964 1601 ft 236 kts 273°
2026-04-25 21:16 19.08726 72.76234 1592 ft 236 kts 273°
2026-04-25 21:16 19.08794 72.74458 1721 ft 251 kts 281°
2026-04-25 21:16 19.09060 72.72592 2190 ft 263 kts 282°
2026-04-25 21:17 19.09364 72.70669 2797 ft 268 kts 282°
2026-04-25 21:17 19.09675 72.68708 3475 ft 270 kts 282°
2026-04-25 21:17 19.09982 72.66735 4138 ft 275 kts 281°
2026-04-25 21:17 19.11022 72.59871 6398 ft 286 kts 279°
2026-04-25 21:18 19.12263 72.51368 9012 ft 299 kts 278°
2026-04-25 21:18 19.13549 72.42436 11321 ft 321 kts 278°
2026-04-25 21:18 19.14990 72.32388 12781 ft 371 kts 278°
2026-04-25 21:18 19.16586 72.21233 14716 ft 391 kts 278°
2026-04-25 21:19 19.18226 72.09731 16764 ft 402 kts 278°
2026-04-25 21:19 19.19853 71.98246 18689 ft 410 kts 278°
2026-04-25 21:19 19.21549 71.86217 20422 ft 418 kts 278°
2026-04-25 21:19 19.23280 71.73890 22004 ft 428 kts 278°
2026-04-25 21:20 19.25029 71.61362 23619 ft 432 kts 278°
2026-04-25 21:20 19.25598 71.57268 24047 ft 434 kts 278°
2026-04-25 21:20 19.30330 71.23071 27089 ft 453 kts 278°
2026-04-25 21:20 19.33869 70.97143 28969 ft 466 kts 278°
2026-04-25 21:21 19.37522 70.69655 30782 ft 472 kts 278°
2026-04-25 21:21 19.41541 70.42402 32700 ft 469 kts 287°
2026-04-25 21:21 19.53349 70.18125 34164 ft 470 kts 302°
2026-04-25 21:21 19.64589 69.95267 34088 ft 488 kts 294°
2026-04-25 21:22 19.67011 69.88673 33910 ft 466 kts 292°
2026-04-25 21:22 19.68152 69.85501 33846 ft 455 kts 294°
2026-04-25 21:22 19.69340 69.82398 33870 ft 454 kts 295°
2026-04-25 21:23 19.76705 69.65140 33923 ft 473 kts 297°
2026-04-25 21:23 19.87885 69.39613 33831 ft 474 kts 297°
2026-04-25 21:24 19.93375 69.26958 33805 ft 463 kts 297°
2026-04-25 21:24 20.13233 68.80856 33612 ft 438 kts 297°
2026-04-25 21:24 20.33230 68.34399 33909 ft 427 kts 297°
2026-04-25 21:24 20.62669 67.65754 34226 ft 432 kts 297°
2026-04-25 21:25 20.74917 67.35254 33996 ft 473 kts 296°
2026-04-25 21:25 20.85837 67.09400 33782 ft 478 kts 297°
2026-04-25 21:25 20.96486 66.84184 33767 ft 470 kts 296°
2026-04-25 21:26 21.17129 66.33782 33826 ft 453 kts 296°
2026-04-25 21:26 21.36881 65.85474 33861 ft 445 kts 296°
2026-04-25 21:27 21.56827 65.36237 33931 ft 456 kts 296°
2026-04-25 21:27 21.76965 64.85882 33857 ft 465 kts 295°
2026-04-25 21:28 21.97055 64.35130 33819 ft 454 kts 295°
2026-04-25 21:28 22.16262 63.86144 33878 ft 443 kts 295°
2026-04-25 21:29 22.35364 63.36949 33890 ft 446 kts 295°
2026-04-25 21:29 22.54464 62.87228 33928 ft 460 kts 294°
2026-04-25 21:30 22.73756 62.36286 33813 ft 451 kts 293°
2026-04-25 21:30 22.89097 61.95505 33831 ft 440 kts 293°
2026-04-25 21:31 23.10340 61.38408 33916 ft 443 kts 293°
2026-04-25 21:31 23.28659 60.88571 33912 ft 454 kts 292°
2026-04-25 21:32 23.47174 60.37523 33839 ft 451 kts 291°
2026-04-25 21:32 23.62100 59.96042 33823 ft 438 kts 291°
2026-04-25 21:33 23.79435 59.47272 33907 ft 433 kts 290°
2026-04-25 21:33 23.96537 58.98576 33932 ft 441 kts 290°
2026-04-25 21:34 24.13564 58.49369 31848 ft 397 kts 289°
2026-04-25 21:34 24.19849 58.29142 31361 ft 307 kts 287°
2026-04-25 21:34 24.23619 58.16781 30943 ft 295 kts 288°
2026-04-25 21:35 24.24303 58.14598 30703 ft 313 kts 288°
2026-04-25 21:35 24.25037 58.12263 30425 ft 334 kts 288°
2026-04-25 21:35 24.25833 58.09812 30367 ft 347 kts 289°
2026-04-25 21:35 24.26667 58.07317 30593 ft 350 kts 289°
2026-04-25 21:36 24.27512 58.04808 30803 ft 354 kts 289°
2026-04-25 21:36 24.30472 57.95988 29532 ft 364 kts 289°
2026-04-25 21:36 24.34035 57.85284 26852 ft 384 kts 289°
2026-04-25 21:36 24.37809 57.73898 23782 ft 411 kts 289°
2026-04-25 21:37 24.41858 57.61657 19624 ft 442 kts 289°
2026-04-25 21:37 24.44650 57.53193 17340 ft 444 kts 288°
2026-04-25 21:37 24.50099 57.36630 13871 ft 418 kts 288°
2026-04-25 21:37 24.53890 57.25057 11459 ft 398 kts 288°
2026-04-25 21:38 24.57526 57.13926 9802 ft 368 kts 288°
2026-04-25 21:38 24.60778 57.03949 9839 ft 327 kts 288°
2026-04-25 21:38 24.63574 56.95346 9881 ft 291 kts 288°
2026-04-25 21:38 24.66168 56.87344 9919 ft 270 kts 288°
2026-04-25 21:39 24.69475 56.77099 10099 ft 284 kts 288°
2026-04-25 21:39 24.74948 56.60122 10141 ft 302 kts 288°
2026-04-25 21:39 24.80438 56.43015 9251 ft 283 kts 289°
2026-04-25 21:39 24.85563 56.26929 6831 ft 277 kts 289°
2026-04-25 21:40 24.87833 56.19807 6082 ft 273 kts 290°
2026-04-25 21:40 24.88468 56.17833 6039 ft 274 kts 290°
2026-04-25 21:40 24.89098 56.15865 6019 ft 271 kts 290°
2026-04-25 21:40 24.89718 56.13924 6022 ft 266 kts 290°
2026-04-25 21:41 24.90323 56.12024 6008 ft 261 kts 290°
2026-04-25 21:41 24.91234 56.09156 6010 ft 261 kts 290°
2026-04-25 21:41 24.95815 55.94785 6009 ft 253 kts 288°
2026-04-25 21:41 24.98321 55.86754 6038 ft 255 kts 288°
2026-04-25 21:42 24.98909 55.84891 5939 ft 260 kts 288°
2026-04-25 21:42 24.99495 55.83043 5830 ft 254 kts 288°
2026-04-25 21:42 25.00208 55.81275 5543 ft 249 kts 298°
2026-04-25 21:42 25.01124 55.79661 5147 ft 247 kts 302°
2026-04-25 21:43 25.02042 55.78084 4754 ft 247 kts 302°
2026-04-25 21:43 25.02961 55.76479 4292 ft 249 kts 302°
2026-04-25 21:43 25.03888 55.74879 3966 ft 245 kts 303°
2026-04-25 21:43 25.04841 55.73333 3583 ft 243 kts 305°
2026-04-25 21:44 25.05778 55.71783 3156 ft 244 kts 304°
2026-04-25 21:44 25.06684 55.70199 2754 ft 243 kts 304°
2026-04-25 21:44 25.08442 55.67027 2057 ft 241 kts 303°
2026-04-25 21:45 25.09306 55.65453 2039 ft 241 kts 304°
2026-04-25 21:45 25.09896 55.64381 2031 ft 242 kts 303°
2026-04-25 21:45 25.11055 55.62271 2022 ft 244 kts 302°
2026-04-25 21:45 25.11935 55.60671 2007 ft 244 kts 303°
2026-04-25 21:46 25.12821 55.59062 2015 ft 245 kts 303°
2026-04-25 21:46 25.13705 55.57452 1999 ft 246 kts 303°
2026-04-25 21:46 25.14597 55.55833 2018 ft 247 kts 303°
2026-04-25 21:46 25.15483 55.54224 2020 ft 241 kts 303°
2026-04-25 21:47 25.16315 55.52689 2010 ft 224 kts 303°
2026-04-25 21:47 25.17095 55.51282 1989 ft 205 kts 303°
2026-04-25 21:47 25.17790 55.50028 2009 ft 174 kts 302°
2026-04-25 21:47 25.18382 55.48954 1857 ft 154 kts 303°
2026-04-25 21:48 25.18930 55.47963 1702 ft 151 kts 303°
2026-04-25 21:48 25.19472 55.46980 1516 ft 149 kts 303°
2026-04-25 21:48 25.20007 55.46009 1327 ft 151 kts 302°
2026-04-25 21:48 25.20552 55.45023 1145 ft 154 kts 302°
2026-04-25 21:49 25.21183 55.43876 917 ft 151 kts 301°
2026-04-25 21:49 25.22057 55.42296 626 ft 143 kts 303°
2026-04-25 21:49 25.22582 55.41333 427 ft 147 kts 303°
2026-04-25 21:49 25.23127 55.40373 269 ft 152 kts 301°
2026-04-25 21:50 25.23664 55.39375 53 ft 148 kts 302°
2026-04-25 21:50 25.24157 55.38497 25 ft 99 kts 301°
2026-04-25 21:50 25.24283 55.38265 28 ft 19 kts 300°
2026-04-25 21:50 25.24316 55.38177 27 ft 18 kts 274°
2026-04-25 21:51 25.24199 55.38063 22 ft 19 kts 180°
2026-04-25 21:51 25.24100 55.38044 20 ft 15 kts 252°
2026-04-25 21:51 25.24135 55.37946 22 ft 14 kts 301°
2026-04-25 21:51 25.24182 55.37859 22 ft 13 kts 301°
2026-04-25 21:52 25.24231 55.37770 20 ft 13 kts 301°
2026-04-25 21:52 25.24280 55.37687 22 ft 13 kts 304°
2026-04-25 21:52 25.24329 55.37604 21 ft 13 kts 302°
2026-04-25 21:52 25.24374 55.37521 20 ft 12 kts 294°
2026-04-25 21:53 25.24375 55.37504 22 ft 0 kts 257°
2026-04-25 21:53 25.24374 55.37501 20 ft 0 kts 244°
2026-04-25 21:53 25.24372 55.37498 20 ft 1 kts 241°
2026-04-25 21:54 25.24370 55.37494 20 ft 1 kts 236°
2026-04-25 21:54 25.24368 55.37491 20 ft 1 kts 233°
2026-04-25 21:54 25.24307 55.37447 20 ft 5 kts 212°
2026-04-25 21:54 25.24292 55.37437 21 ft 0 kts 213°